Location: Cherry Springs State Park
(41.6616°N, 77.8240°W)
Time: 07:08:02
(UTC-05:00)

Amateur Radio Satellites - All Passes

Search period start: 22 December 2014 06:38
Search period end: 23 December 2014 06:38
Location: Cherry Springs State Park, 41.6616°N, 77.8240°W

Satellite Date Start Highest point End Downlink Frequencies (MHz)
Time Altitude Azimuth
CUBESAT XI-V 22 Dec 06:40:50 06:45:16 42° 262° (W) 06:49:42 437.345
CUTE-I 22 Dec 06:48:21 06:53:41 82° 285° (WNW) 06:59:00 437.470
GONETS M04 22 Dec 06:57:19 07:05:20 37° 289° (WNW) 07:13:23
PRISM 22 Dec 07:01:47 07:02:50 11° 270° (W) 07:03:54 437.425
JAS-2 22 Dec 07:08:07 07:11:04 15° 303° (WNW) 07:13:54 435.910
VERMONT LUNAR 22 Dec 07:25:10 07:28:05 25° 206° (SSW) 07:31:01 437.305
STRAND 1 22 Dec 07:32:18 07:35:44 18° 268° (W) 07:39:10 437.568
MaSat-1 22 Dec 07:40:51 07:41:21 11° 108° (ESE) 07:41:51 437.345
PHONESAT 2.4 22 Dec 07:47:01 07:50:07 27° 205° (SSW) 07:53:13 2401.200-2431.200
BRITE-PL 22 Dec 07:51:58 07:54:38 15° 92° (E) 07:57:23 437.365/2234.400
Cubesat XI-IV 22 Dec 07:56:34 08:00:31 22° 297° (WNW) 08:04:28 437.490
CANX-2 22 Dec 08:03:19 08:05:52 15° 91° (E) 08:08:24 2200.000
GOMX 1 22 Dec 08:09:42 08:12:43 16° 92° (E) 08:15:49 467.674
HO-68 22 Dec 08:18:59 08:25:12 31° 96° (E) 08:31:22 435.675
COMPASS 1 22 Dec 08:20:12 08:22:43 15° 91° (E) 08:25:12 437.405
DOVE 4 22 Dec 08:26:55 08:30:13 18° 92° (E) 08:33:36 437.250
SEEDS 22 Dec 08:27:28 08:30:49 22° 94° (E) 08:34:09 437.485
CUTE-I 22 Dec 08:31:08 08:32:53 12° 303° (WNW) 08:34:39 437.470
CUTE 1.7 + AOD 2 22 Dec 08:32:54 08:36:41 29° 96° (E) 08:40:27 437.475
CINEMA 3 22 Dec 08:40:11 08:42:45 14° 91° (E) 08:45:21 145.822/145.860
DANDE 22 Dec 08:41:22 08:43:52 17° 82° (E) 08:46:49 436.750
O/OREOS (USA 219) 22 Dec 08:42:06 08:43:36 11° 50° (NE) 08:45:06 437.305
DX 1 22 Dec 08:57:30 08:59:18 12° 91° (E) 09:01:07 434.975-435.025
TIGRISAT 22 Dec 09:03:06 09:06:19 20° 65° (ENE) 09:09:37 435.000
DUCHIFAT 1 22 Dec 09:11:57 09:14:29 16° 64° (ENE) 09:17:02 145.980
MaSat-1 22 Dec 09:12:57 09:14:21 15° 303° (WNW) 09:15:44 437.345
Oscar 11 22 Dec 09:15:19 09:19:04 27° 95° (E) 09:22:47 145.826/435.025
YUBILEINY 22 Dec 09:15:30 09:21:36 20° 63° (ENE) 09:27:40 435.215
AAUSAT CUBESAT 2 22 Dec 09:17:47 09:22:00 59° 100° (E) 09:26:09 437.432
CUSAT 1 22 Dec 09:22:10 09:25:53 65° 95° (E) 09:30:55 437.405
UKube-1 22 Dec 09:25:10 09:28:43 24° 95° (E) 09:32:15 .
QB50P2 22 Dec 09:25:57 09:29:15 23° 67° (ENE) 09:32:34 145.880/145.840
BRITE-PL 22 Dec 09:28:44 09:33:26 63° 285° (WNW) 09:38:30 437.365/2234.400
UNISAT 6 22 Dec 09:32:09 09:36:15 41° 71° (ENE) 09:40:29 437.425
RS-15 22 Dec 09:34:27 09:40:10 16° 97° (E) 09:45:50 29.354- 29.394
POLYITAN 1 22 Dec 09:35:05 09:38:41 28° 69° (ENE) 09:42:18 437.675
NANOSAT C BR1 22 Dec 09:35:42 09:39:17 28° 69° (ENE) 09:42:53 145.865
CANX-2 22 Dec 09:37:53 09:42:03 47° 287° (WNW) 09:46:11 2200.000
GOMX 1 22 Dec 09:46:22 09:51:05 58° 286° (WNW) 09:56:07 467.674
CUBEBUG 2 22 Dec 09:47:03 09:51:29 41° 98° (E) 09:55:58 437.445
QB50P1 22 Dec 09:50:02 09:53:57 40° 71° (ENE) 09:57:55 145.935-145.965
ZACube-1 22 Dec 09:50:05 09:54:10 32° 96° (E) 09:58:16 437.345
COMPASS 1 22 Dec 09:54:35 09:58:40 46° 287° (WNW) 10:02:43 437.405
VELOX 1 22 Dec 09:58:45 10:02:01 20° 94° (E) 10:05:16 145.980
DELFI C3 22 Dec 10:00:00 10:04:09 73° 102° (ESE) 10:08:14 145.870
50 SAT 22 Dec 10:01:20 10:04:13 18° 93° (E) 10:07:06 437.505
SEEDS 22 Dec 10:02:51 10:06:41 32° 290° (WNW) 10:10:29 437.485
DOVE 4 22 Dec 10:03:31 10:08:11 53° 287° (WNW) 10:13:07 437.250
ANTELSAT 22 Dec 10:03:56 10:08:19 90° 251° (WSW) 10:12:51 437.575/2403.000
HO-68 22 Dec 10:06:16 10:13:07 51° 293° (WNW) 10:19:56 435.675
CUTE 1.7 + AOD 2 22 Dec 10:08:58 10:12:29 25° 292° (WNW) 10:16:00 437.475
ESTCUBE 1 22 Dec 10:10:15 10:10:46 10° 89° (E) 10:11:17 437.505/2401.250
CINEMA 3 22 Dec 10:15:34 10:20:17 64° 286° (WNW) 10:25:11 145.822/145.860
FUNcube-1 22 Dec 10:15:58 10:20:29 59° 100° (E) 10:25:01 145.935
POPSAT HIP 1 22 Dec 10:18:39 10:22:52 86° 76° (ENE) 10:27:06 437.405
O/OREOS (USA 219) 22 Dec 10:19:07 10:23:40 88° 249° (WSW) 10:28:12 437.305
UWE-3 22 Dec 10:21:18 10:25:56 81° 102° (ESE) 10:30:37 435.000/436.395/437.385
DANDE 22 Dec 10:23:25 10:26:47 32° 291° (WNW) 10:31:12 436.750
DX 1 22 Dec 10:31:38 10:35:55 59° 287° (WNW) 10:40:11 434.975-435.025
BUGSAT 1 22 Dec 10:35:57 10:40:02 75° 258° (WSW) 10:44:06 437.445
HUMSAT D 22 Dec 10:36:42 10:41:00 58° 100° (E) 10:45:17 437.325/437.525
TIGRISAT 22 Dec 10:38:44 10:42:47 38° 262° (W) 10:46:59 435.000
CUBEBUG 1 22 Dec 10:42:06 10:45:29 22° 94° (E) 10:48:52 437.445
AISAT 22 Dec 10:42:09 10:46:33 60° 101° (E) 10:50:57 437.250
DUCHIFAT 1 22 Dec 10:45:56 10:49:58 46° 261° (W) 10:54:02 145.980
Oscar 11 22 Dec 10:51:28 10:55:09 27° 292° (WNW) 10:58:49 145.826/435.025
AAUSAT CUBESAT 2 22 Dec 10:55:11 10:57:09 13° 297° (WNW) 10:59:07 437.432
UKube-1 22 Dec 11:01:05 11:04:52 30° 292° (WNW) 11:08:38 .
QB50P2 22 Dec 11:01:16 11:05:00 31° 263° (W) 11:08:47 145.880/145.840
CUSAT 1 22 Dec 11:08:30 11:10:04 12° 304° (NW) 11:11:46 437.405
UNISAT 6 22 Dec 11:10:11 11:13:14 18° 268° (W) 11:16:22 437.425
YUBILEINY 22 Dec 11:10:51 11:19:35 87° 264° (W) 11:28:18 435.215
POLYITAN 1 22 Dec 11:11:09 11:14:36 24° 265° (W) 11:18:04 437.675
NANOSAT C BR1 22 Dec 11:11:41 11:15:08 24° 265° (W) 11:18:35 145.865
CUBEBUG 2 22 Dec 11:24:23 11:27:54 22° 294° (WNW) 11:31:28 437.445
ZACube-1 22 Dec 11:26:39 11:30:24 26° 292° (WNW) 11:34:11 437.345
QB50P1 22 Dec 11:27:15 11:30:01 17° 267° (W) 11:32:48 145.935-145.965
TISAT 1 22 Dec 11:33:21 11:36:27 20° 94° (E) 11:39:32 437.305
VELOX 1 22 Dec 11:34:37 11:38:43 38° 290° (WNW) 11:42:47 145.980
50 SAT 22 Dec 11:35:43 11:39:33 37° 289° (WNW) 11:43:23 437.505
DELFI C3 22 Dec 11:38:13 11:38:47 10° 298° (WNW) 11:39:22 145.870
RS-15 22 Dec 11:39:34 11:50:26 75° 118° (ESE) 12:01:21 29.354- 29.394
SPROUT 22 Dec 11:42:32 11:46:01 24° 95° (E) 11:49:29 437.525
ESTCUBE 1 22 Dec 11:43:39 11:48:09 75° 285° (WNW) 11:52:37 437.505/2401.250
FUNcube-1 22 Dec 11:53:47 11:56:20 15° 297° (WNW) 11:58:55 145.935
UWE-3 22 Dec 12:00:16 12:01:50 12° 299° (WNW) 12:03:24 435.000/436.395/437.385
ISS 22 Dec 12:12:47 12:15:18 20° 133° (SE) 12:17:49 145.825
BEESAT 3 22 Dec 12:13:26 12:16:52 26° 113° (ESE) 12:20:22 437.485
HUMSAT D 22 Dec 12:14:04 12:16:18 14° 297° (WNW) 12:18:33 437.325/437.525
CUBEBUG 1 22 Dec 12:18:02 12:21:54 33° 290° (WNW) 12:25:47 437.445
AISAT 22 Dec 12:20:22 12:22:41 14° 298° (WNW) 12:24:59 437.250
Oscar 19 22 Dec 12:27:17 12:32:15 51° 71° (ENE) 12:37:15 437.125/150
PCSat 22 Dec 12:30:34 12:34:51 24° 107° (ESE) 12:39:09 145.827
AIST 2 22 Dec 12:32:02 12:34:53 18° 110° (ESE) 12:37:47 435.215
ITAMSAT 1 22 Dec 12:47:54 12:52:24 31° 67° (ENE) 12:56:55 435.822/435.867
BEESAT 2 22 Dec 12:54:20 12:58:25 66° 120° (ESE) 13:02:34 435.950
Gurwin Techsat 1B 22 Dec 12:54:49 12:58:54 23° 64° (ENE) 13:02:59 435.225
TISAT 1 22 Dec 13:08:30 13:12:22 35° 290° (WNW) 13:16:13 437.305
YUBILEINY 22 Dec 13:10:05 13:15:01 17° 284° (WNW) 13:19:58 435.215
SWISSCUBE 22 Dec 13:11:17 13:15:41 36° 98° (E) 13:20:03 437.505
ITUPSAT 1 22 Dec 13:12:37 13:16:57 34° 97° (E) 13:21:15 437.325
SPROUT 22 Dec 13:18:20 13:22:06 30° 291° (WNW) 13:25:52 437.525
AUBIESAT-1 22 Dec 13:26:04 13:27:34 12° 93° (E) 13:29:02 437.475
BEESAT 22 Dec 13:35:40 13:40:24 60° 101° (E) 13:45:05 436.000
ISS 22 Dec 13:48:26 13:51:39 49° 330° (NNW) 13:54:53 145.825
BEESAT 3 22 Dec 13:51:16 13:54:57 31° 311° (NW) 13:58:41 437.485
M-CUBED/EXP-1 PRIME 22 Dec 13:51:31 13:55:07 26° 99° (E) 13:58:27 437.505
AO-7 22 Dec 13:51:39 13:58:14 27° 54° (NE) 14:04:49 29.400- 29.500
RS-15 22 Dec 13:53:55 14:03:47 38° 323° (NW) 14:13:51 29.354- 29.394
STARS 22 Dec 14:00:50 14:03:21 15° 92° (E) 14:05:51 437.465
KKS-1 22 Dec 14:07:50 14:11:37 26° 96° (E) 14:15:23 437.445
Oscar 19 22 Dec 14:08:14 14:11:52 19° 268° (W) 14:15:32 437.125/150
AIST 2 22 Dec 14:09:03 14:13:08 47° 307° (NW) 14:17:19 435.215
PCSat 22 Dec 14:12:43 14:17:56 48° 305° (NW) 14:23:12 145.827
ITAMSAT 1 22 Dec 14:27:11 14:31:49 33° 263° (W) 14:36:28 435.822/435.867
Gurwin Techsat 1B 22 Dec 14:33:25 14:38:32 48° 261° (W) 14:43:40 435.225
BEESAT 2 22 Dec 14:34:28 14:37:06 16° 319° (NW) 14:39:46 435.950
HORYU 2 22 Dec 14:37:30 14:41:57 81° 75° (ENE) 14:46:28 437.375
SWISSCUBE 22 Dec 14:49:32 14:53:21 25° 294° (WNW) 14:57:09 437.505
ITUPSAT 1 22 Dec 14:50:46 14:54:42 26° 294° (WNW) 14:58:36 437.325
AUBIESAT-1 22 Dec 14:58:49 15:03:02 57° 292° (WNW) 15:06:52 437.475
GONETS M04 22 Dec 15:10:25 15:17:16 25° 65° (ENE) 15:24:02
BEESAT 22 Dec 15:14:53 15:17:44 16° 298° (WNW) 15:20:35 436.000
AIST 1 22 Dec 15:21:15 15:24:10 18° 87° (E) 15:27:05
M-CUBED/EXP-1 PRIME 22 Dec 15:26:25 15:30:05 27° 298° (WNW) 15:33:29 437.505
ISS 22 Dec 15:26:36 15:28:49 17° 349° (N) 15:31:03 145.825
JAS-2 22 Dec 15:31:47 15:38:37 40° 67° (ENE) 15:44:53 435.910
STARS 22 Dec 15:35:48 15:40:07 52° 288° (WNW) 15:44:25 437.465
AO-7 22 Dec 15:41:55 15:50:13 75° 254° (WSW) 15:58:37 29.400- 29.500
KKS-1 22 Dec 15:44:20 15:48:13 30° 292° (WNW) 15:52:05 437.445
PCSat 22 Dec 16:01:55 16:02:44 10° 327° (NNW) 16:03:33 145.827
Cubesat XI-IV 22 Dec 16:01:55 16:03:59 12° 57° (ENE) 16:06:02 437.490
RS-15 22 Dec 16:12:48 16:20:37 21° 358° (N) 16:28:36 29.354- 29.394
CUTE-I 22 Dec 16:32:13 16:36:15 23° 63° (ENE) 16:40:17 437.470
AIST 1 22 Dec 16:57:25 17:01:30 38° 283° (WNW) 17:05:35
ISS 22 Dec 17:04:13 17:06:22 16° 10° (N) 17:08:31 145.825
GONETS M04 22 Dec 17:06:15 17:14:58 74° 266° (W) 17:23:36
MOZHAYETS 4 22 Dec 17:08:03 17:12:41 74° 102° (ESE) 17:17:16
MaSat-1 22 Dec 17:08:39 17:10:26 18° 59° (ENE) 17:12:16 437.345
JAS-2 22 Dec 17:16:24 17:23:33 43° 262° (W) 17:30:07 435.910
Cubesat XI-IV 22 Dec 17:37:55 17:43:15 86° 75° (ENE) 17:48:36 437.490
AO-7 22 Dec 17:40:27 17:44:19 14° 272° (W) 17:48:12 29.400- 29.500
STRAND 1 22 Dec 18:02:41 18:06:05 18° 92° (E) 18:09:28 437.568
CUTE-I 22 Dec 18:10:50 18:15:58 49° 260° (W) 18:21:08 437.470
CUSAT 1 22 Dec 18:18:18 18:22:32 15° 60° (ENE) 18:26:57 437.405
RS-15 22 Dec 18:28:02 18:37:50 33° 33° (NNE) 18:47:56 29.354- 29.394
CUBESAT XI-V 22 Dec 18:37:18 18:41:44 46° 99° (E) 18:46:09 437.345
ISS 22 Dec 18:40:25 18:43:35 43° 29° (NNE) 18:46:43 145.825
PRISM 22 Dec 18:41:07 18:45:16 76° 285° (WNW) 18:49:23 437.425
MaSat-1 22 Dec 18:42:35 18:43:24 11° 252° (WSW) 18:44:14 437.345
MOZHAYETS 4 22 Dec 18:47:21 18:49:16 13° 299° (WNW) 18:51:11
HO-68 22 Dec 18:48:35 18:54:13 26° 58° (ENE) 18:59:51 435.675
CANX-2 22 Dec 18:57:57 18:59:45 12° 62° (ENE) 19:01:33 2200.000
BRITE-PL 22 Dec 19:04:37 19:06:47 14° 64° (ENE) 19:08:58 437.365/2234.400
GONETS M04 22 Dec 19:06:29 19:10:07 13° 286° (WNW) 19:13:45
COMPASS 1 22 Dec 19:13:29 19:15:07 12° 62° (ENE) 19:16:45 437.405
DANDE 22 Dec 19:19:00 19:25:59 34° 70° (ENE) 19:33:36 436.750
GOMX 1 22 Dec 19:19:42 19:21:59 15° 64° (ENE) 19:24:17 467.674
SEEDS 22 Dec 19:20:51 19:23:38 17° 65° (ENE) 19:26:26 437.485
Cubesat XI-IV 22 Dec 19:22:17 19:23:59 11° 272° (W) 19:25:42 437.490
CUTE 1.7 + AOD 2 22 Dec 19:26:40 19:30:00 23° 67° (ENE) 19:33:22 437.475
DOVE 4 22 Dec 19:34:24 19:36:52 16° 64° (ENE) 19:39:22 437.250
STRAND 1 22 Dec 19:40:37 19:45:36 55° 288° (WNW) 19:50:32 437.568
CINEMA 3 22 Dec 19:44:05 19:45:38 12° 61° (ENE) 19:47:11 145.822/145.860
DX 1 22 Dec 19:54:09 19:55:59 13° 61° (ENE) 19:57:49 434.975-435.025
CUSAT 1 22 Dec 19:58:59 20:06:52 67° 78° (ENE) 20:15:20 437.405
SO-50 22 Dec 20:06:24 20:10:33 38° 115° (ESE) 20:14:52 436.795
AAUSAT CUBESAT 2 22 Dec 20:09:18 20:13:15 41° 72° (ENE) 20:17:15 437.432
Oscar 11 22 Dec 20:10:48 20:14:12 23° 67° (ENE) 20:17:37 145.826/435.025
CUBESAT XI-V 22 Dec 20:15:40 20:18:50 19° 295° (WNW) 20:21:59 437.345
ISS 22 Dec 20:17:20 20:19:59 23° 226° (SW) 20:22:37 145.825
UKube-1 22 Dec 20:20:53 20:24:16 23° 66° (ENE) 20:27:40 .
CANX-2 22 Dec 20:30:54 20:35:08 64° 259° (W) 20:39:25 2200.000
BEESAT 3 22 Dec 20:32:46 20:36:01 21° 45° (NE) 20:39:14 437.485
HO-68 22 Dec 20:34:12 20:41:20 67° 257° (WSW) 20:48:30 435.675
RS-15 22 Dec 20:40:28 20:51:49 90° 241° (WSW) 21:03:40 29.354- 29.394
BRITE-PL 22 Dec 20:40:54 20:44:55 48° 261° (W) 20:48:58 437.365/2234.400
COMPASS 1 22 Dec 20:46:05 20:50:17 66° 259° (W) 20:54:31 437.405
CUBEBUG 2 22 Dec 20:46:15 20:50:01 33° 70° (ENE) 20:53:54 437.445
ZACube-1 22 Dec 20:47:09 20:50:35 25° 68° (ENE) 20:54:05 437.345
DELFI C3 22 Dec 20:48:41 20:52:38 47° 73° (ENE) 20:56:36 145.870
50 SAT 22 Dec 20:51:19 20:53:03 13° 63° (ENE) 20:54:49 437.505
AIST 2 22 Dec 20:53:09 20:55:58 17° 41° (NE) 20:58:46 435.215
SEEDS 22 Dec 20:55:04 20:59:07 43° 262° (W) 21:03:13 437.485
GOMX 1 22 Dec 20:55:44 20:59:43 47° 261° (W) 21:03:47 467.674
VELOX 1 22 Dec 20:57:21 21:00:31 20° 65° (ENE) 21:03:42 145.980
CUTE 1.7 + AOD 2 22 Dec 21:01:56 21:05:45 32° 264° (W) 21:09:37 437.475
DANDE 22 Dec 21:02:00 21:09:44 60° 266° (W) 21:18:14 436.750
ESTCUBE 1 22 Dec 21:10:18 21:11:46 11° 61° (ENE) 21:13:13 437.505/2401.250
DOVE 4 22 Dec 21:10:18 21:14:16 45° 261° (W) 21:18:20 437.250
FUNcube-1 22 Dec 21:12:28 21:16:28 46° 72° (ENE) 21:20:35 145.935
BEESAT 2 22 Dec 21:14:20 21:18:22 44° 52° (NE) 21:22:21 435.950
PCSat 22 Dec 21:17:28 21:21:50 24° 46° (NE) 21:26:11 145.827
CINEMA 3 22 Dec 21:18:07 21:22:15 65° 259° (W) 21:26:31 145.822/145.860
UWE-3 22 Dec 21:19:03 21:23:12 66° 75° (ENE) 21:27:29 435.000/436.395/437.385
DX 1 22 Dec 21:27:22 21:31:40 66° 258° (WSW) 21:36:00 434.975-435.025
HUMSAT D 22 Dec 21:29:21 21:33:14 41° 72° (ENE) 21:37:12 437.325/437.525
CUBEBUG 1 22 Dec 21:39:10 21:42:22 20° 66° (ENE) 21:45:34 437.445
AISAT 22 Dec 21:40:33 21:44:52 56° 73° (ENE) 21:49:11 437.250
CUSAT 1 22 Dec 21:42:54 21:49:30 29° 273° (W) 21:56:27 437.405
Oscar 11 22 Dec 21:46:17 21:50:11 32° 263° (W) 21:54:08 145.826/435.025
AAUSAT CUBESAT 2 22 Dec 21:46:23 21:49:06 17° 268° (W) 21:51:51 437.432
SO-50 22 Dec 21:47:14 21:51:11 28° 314° (NW) 21:55:15 436.795
UKube-1 22 Dec 21:56:21 22:00:15 33° 262° (W) 22:04:11 .
ANTELSAT 22 Dec 21:56:44 22:00:14 20° 93° (E) 22:03:42 437.575/2403.000
POPSAT HIP 1 22 Dec 22:05:34 22:07:49 14° 91° (E) 22:10:04 437.405
BEESAT 3 22 Dec 22:10:25 22:14:23 43° 243° (WSW) 22:18:17 437.485
YUBILEINY 22 Dec 22:18:10 22:24:23 22° 79° (E) 22:30:35 435.215
BUGSAT 1 22 Dec 22:19:35 22:21:58 15° 92° (E) 22:24:21 437.445
ZACube-1 22 Dec 22:23:15 22:26:51 28° 265° (W) 22:30:33 437.345
CUBEBUG 2 22 Dec 22:23:40 22:26:49 21° 267° (W) 22:30:03 437.445
50 SAT 22 Dec 22:23:50 22:27:46 56° 260° (W) 22:31:47 437.505
DELFI C3 22 Dec 22:25:56 22:28:09 14° 269° (W) 22:30:22 145.870
TISAT 1 22 Dec 22:27:02 22:29:39 16° 65° (ENE) 22:32:16 437.305
TIGRISAT 22 Dec 22:29:58 22:34:28 43° 98° (E) 22:38:57 435.000
AIST 2 22 Dec 22:30:46 22:35:02 66° 240° (WSW) 22:39:13 435.215
DUCHIFAT 1 22 Dec 22:31:12 22:34:49 27° 96° (E) 22:38:26 145.980
VELOX 1 22 Dec 22:32:40 22:36:49 40° 261° (W) 22:41:00 145.980
SPROUT 22 Dec 22:37:41 22:40:47 20° 66° (ENE) 22:43:52 437.525
ESTCUBE 1 22 Dec 22:43:26 22:47:59 79° 257° (WSW) 22:52:32 437.505/2401.250
QB50P2 22 Dec 22:46:15 22:50:18 40° 98° (E) 22:54:20 145.880/145.840
DANDE 22 Dec 22:49:35 22:51:57 11° 282° (WNW) 22:54:22 436.750
FUNcube-1 22 Dec 22:50:41 22:53:06 15° 269° (W) 22:55:33 145.935
BEESAT 2 22 Dec 22:53:25 22:56:17 18° 249° (WSW) 22:59:07 435.950
RS-15 22 Dec 22:54:34 23:02:45 24° 259° (W) 23:11:12 29.354- 29.394
POLYITAN 1 22 Dec 22:55:51 23:00:03 52° 100° (E) 23:04:15 437.675
NANOSAT C BR1 22 Dec 22:55:55 23:00:05 51° 100° (E) 23:04:14 145.865
UWE-3 22 Dec 22:59:42 23:00:15 10° 272° (W) 23:00:48 435.000/436.395/437.385
UNISAT 6 22 Dec 23:00:17 23:05:02 90° 85° (E) 23:09:46 437.425
PCSat 22 Dec 23:00:18 23:05:37 57° 245° (WSW) 23:10:54 145.827
HUMSAT D 22 Dec 23:06:39 23:09:15 16° 268° (W) 23:11:52 437.325/437.525
QB50P1 22 Dec 23:10:42 23:14:59 76° 102° (ESE) 23:19:15 145.935-145.965
CUBEBUG 1 22 Dec 23:14:26 23:18:30 37° 262° (W) 23:22:33 437.445
AISAT 22 Dec 23:19:40 23:21:50 13° 269° (W) 23:24:00 437.250
ANTELSAT 22 Dec 23:32:43 23:37:11 43° 289° (WNW) 23:41:38 437.575/2403.000
POPSAT HIP 1 22 Dec 23:39:51 23:44:00 51° 287° (WNW) 23:48:08 437.405
BUGSAT 1 22 Dec 23:53:49 23:57:40 42° 288° (WNW) 00:01:31 437.445
TISAT 1 23 Dec 00:01:06 00:05:07 45° 261° (W) 00:09:10 437.305
DUCHIFAT 1 23 Dec 00:07:02 00:10:36 27° 292° (WNW) 00:14:11 145.980
TIGRISAT 23 Dec 00:07:24 00:10:54 21° 295° (WNW) 00:14:25 435.000
YUBILEINY 23 Dec 00:11:27 00:20:11 76° 279° (W) 00:28:56 435.215
SPROUT 23 Dec 00:12:39 00:16:36 37° 262° (W) 00:20:36 437.525
AUBIESAT-1 23 Dec 00:13:25 00:17:12 23° 60° (ENE) 00:20:59 437.475
SWISSCUBE 23 Dec 00:18:09 00:22:40 43° 71° (ENE) 00:27:13 437.505
ITUPSAT 1 23 Dec 00:19:42 00:24:12 41° 70° (ENE) 00:28:42 437.325
QB50P2 23 Dec 00:22:57 00:25:55 19° 295° (WNW) 00:28:53 145.880/145.840
O/OREOS (USA 219) 23 Dec 00:31:27 00:35:54 77° 293° (WNW) 00:40:22 437.305
NANOSAT C BR1 23 Dec 00:33:06 00:35:32 15° 296° (WNW) 00:37:59 145.865
POLYITAN 1 23 Dec 00:33:07 00:35:34 15° 296° (WNW) 00:38:02 437.675
Oscar 19 23 Dec 00:39:41 00:43:10 18° 92° (E) 00:46:38 437.125/150
M-CUBED/EXP-1 PRIME 23 Dec 00:39:55 00:44:30 43° 66° (ENE) 00:49:09 437.505
UNISAT 6 23 Dec 00:39:55 00:41:05 11° 300° (WNW) 00:42:15 437.425
BEESAT 23 Dec 00:42:21 00:47:07 71° 74° (ENE) 00:51:54 436.000
QB50P1 23 Dec 00:49:18 00:50:15 11° 299° (WNW) 00:51:11 145.935-145.965
STARS 23 Dec 00:59:00 01:01:22 15° 63° (ENE) 01:03:45 437.465
KKS-1 23 Dec 01:06:41 01:10:18 25° 67° (ENE) 01:13:57 437.445
AUBIESAT-1 23 Dec 01:47:09 01:51:48 46° 256° (WSW) 01:56:31 437.475
VERMONT LUNAR 23 Dec 01:51:18 01:54:13 24° 154° (SSE) 01:57:08 437.305
SWISSCUBE 23 Dec 01:57:12 02:00:43 20° 267° (W) 02:04:15 437.505
ITUPSAT 1 23 Dec 01:58:34 02:02:14 22° 266° (W) 02:05:54 437.325
YUBILEINY 23 Dec 02:13:45 02:18:37 16° 301° (WNW) 02:23:30 435.215
M-CUBED/EXP-1 PRIME 23 Dec 02:15:45 02:19:36 23° 262° (W) 02:23:30 437.505
PHONESAT 2.4 23 Dec 02:17:28 02:20:30 25° 154° (SSE) 02:23:32 2401.200-2431.200
Oscar 19 23 Dec 02:17:45 02:22:51 56° 288° (WNW) 02:27:54 437.125/150
BEESAT 23 Dec 02:23:30 02:25:26 12° 270° (W) 02:27:22 436.000
HORYU 2 23 Dec 02:30:15 02:32:59 16° 92° (E) 02:35:41 437.375
STARS 23 Dec 02:33:04 02:37:22 57° 259° (W) 02:41:42 437.465
ITAMSAT 1 23 Dec 02:39:04 02:44:16 86° 105° (ESE) 02:49:27 435.822/435.867
KKS-1 23 Dec 02:42:56 02:46:49 30° 263° (W) 02:50:45 437.445
Gurwin Techsat 1B 23 Dec 02:49:08 02:54:27 68° 102° (ESE) 02:59:43 435.225
AIST 1 23 Dec 03:04:16 03:08:26 50° 79° (E) 03:12:33
VERMONT LUNAR 23 Dec 03:28:43 03:32:12 64° 170° (S) 03:35:42 437.305
AO-7 23 Dec 03:43:36 03:51:14 37° 98° (E) 03:58:47 29.400- 29.500
PHONESAT 2.4 23 Dec 03:55:16 03:58:52 64° 170° (S) 04:02:28 2401.200-2431.200
HORYU 2 23 Dec 04:05:32 04:09:56 50° 288° (WNW) 04:14:17 437.375
MOZHAYETS 4 23 Dec 04:10:03 04:14:40 70° 75° (ENE) 04:19:19
GONETS M04 23 Dec 04:12:32 04:19:32 28° 82° (E) 04:26:32
ITAMSAT 1 23 Dec 04:20:45 04:23:01 13° 301° (WNW) 04:25:17 435.822/435.867
JAS-2 23 Dec 04:26:56 04:31:22 25° 93° (E) 04:35:35 435.910
Gurwin Techsat 1B 23 Dec 04:30:32 04:33:50 17° 299° (WNW) 04:37:07 435.225
SO-50 23 Dec 04:37:21 04:41:57 40° 50° (NE) 04:46:34 436.795
AIST 1 23 Dec 04:43:39 04:45:36 13° 276° (W) 04:47:33
VERMONT LUNAR 23 Dec 05:06:55 05:10:26 68° 187° (S) 05:13:56 437.305
STRAND 1 23 Dec 05:18:36 05:22:51 27° 66° (ENE) 05:27:07 437.568
PRISM 23 Dec 05:31:45 05:35:58 82° 75° (ENE) 05:40:13 437.425
PHONESAT 2.4 23 Dec 05:33:51 05:37:28 69° 187° (S) 05:41:04 2401.200-2431.200
AO-7 23 Dec 05:36:11 05:44:10 51° 296° (WNW) 05:52:07 29.400- 29.500
CUBESAT XI-V 23 Dec 05:40:56 05:45:23 46° 72° (ENE) 05:49:50 437.345
MOZHAYETS 4 23 Dec 05:50:44 05:52:22 12° 271° (W) 05:54:00
Cubesat XI-IV 23 Dec 05:55:22 06:00:09 33° 97° (E) 06:04:56 437.490
GONETS M04 23 Dec 06:06:52 06:15:37 65° 281° (W) 06:24:25
JAS-2 23 Dec 06:11:33 06:16:42 39° 292° (WNW) 06:21:31 435.910
SO-50 23 Dec 06:18:12 06:22:21 28° 247° (WSW) 06:26:30 436.795
